RYR99WT EGSS-EKCH

Flight info

Callsign RYR99WT
Flight time N/A
Altitude 37000
Route CLN P44 SOMVA DCT MAVAS DCT TULIP Y12 SPY DCT DOSUR P729 TUDLO
Aircraft B738/M-SDE2E3FGHIRWXY/LB1

Departure

Time N/A
Airport London Stansted Airport (EGSS)

Arrival

Time 2026-05-07 21:02
Airport Copenhagen Kastrup Airport (EKCH)
Time Latitude Longitude Altitude Speed Heading
2026-05-07 19:59 52.38304 3.53243 37095 ft 461 kts 95°
2026-05-07 19:59 52.38052 3.58826 37091 ft 460 kts 95°
2026-05-07 19:59 52.37520 3.70480 37092 ft 453 kts 95°
2026-05-07 20:00 52.37043 3.80742 37102 ft 452 kts 94°
2026-05-07 20:00 52.37366 3.89278 37101 ft 454 kts 78°
2026-05-07 20:01 52.39074 3.99221 37089 ft 454 kts 73°
2026-05-07 20:01 52.40897 4.09127 37098 ft 455 kts 74°
2026-05-07 20:02 52.42672 4.19087 37091 ft 456 kts 74°
2026-05-07 20:02 52.44419 4.29088 37092 ft 457 kts 74°
2026-05-07 20:03 52.46163 4.39108 37084 ft 458 kts 75°
2026-05-07 20:03 52.47874 4.49185 37082 ft 459 kts 75°
2026-05-07 20:04 52.49587 4.59263 37082 ft 459 kts 75°
2026-05-07 20:04 52.51302 4.69365 37092 ft 459 kts 75°
2026-05-07 20:05 52.53030 4.79449 37093 ft 459 kts 71°
2026-05-07 20:05 52.55973 4.88712 37094 ft 459 kts 53°
2026-05-07 20:06 52.60247 4.96475 37091 ft 458 kts 45°
2026-05-07 20:06 52.64705 5.03974 37081 ft 458 kts 45°
2026-05-07 20:07 52.69114 5.11477 37101 ft 457 kts 46°
2026-05-07 20:07 52.73507 5.19060 37091 ft 457 kts 46°
2026-05-07 20:08 52.77873 5.26661 37098 ft 456 kts 46°
2026-05-07 20:08 52.82226 5.34268 37098 ft 455 kts 46°
2026-05-07 20:09 52.86572 5.41884 37099 ft 455 kts 46°
2026-05-07 20:10 52.93072 5.53315 37106 ft 454 kts 47°
2026-05-07 20:10 52.97396 5.60949 37095 ft 454 kts 47°
2026-05-07 20:11 53.01707 5.68583 37122 ft 453 kts 47°
2026-05-07 20:11 53.05872 5.76430 37122 ft 453 kts 50°
2026-05-07 20:12 53.09878 5.84508 37124 ft 453 kts 51°
2026-05-07 20:12 53.13866 5.92618 37133 ft 452 kts 51°
2026-05-07 20:13 53.17859 6.00708 37125 ft 452 kts 51°
2026-05-07 20:13 53.21859 6.08804 37119 ft 452 kts 51°
2026-05-07 20:14 53.25851 6.16899 37106 ft 451 kts 51°
2026-05-07 20:14 53.29832 6.24998 37116 ft 451 kts 51°
2026-05-07 20:15 53.33807 6.33112 37113 ft 451 kts 51°
2026-05-07 20:15 53.37778 6.41246 37119 ft 451 kts 51°
2026-05-07 20:16 53.41740 6.49388 37118 ft 451 kts 51°
2026-05-07 20:16 53.45704 6.57560 37118 ft 451 kts 51°
2026-05-07 20:17 53.49660 6.65742 37121 ft 452 kts 51°
2026-05-07 20:17 53.53614 6.73950 37113 ft 452 kts 51°
2026-05-07 20:18 53.57538 6.82119 37128 ft 452 kts 51°
2026-05-07 20:18 53.61484 6.90362 37116 ft 452 kts 52°
2026-05-07 20:19 53.65422 6.98615 37119 ft 452 kts 52°
2026-05-07 20:19 53.69348 7.06872 37119 ft 451 kts 52°
2026-05-07 20:20 53.73272 7.15150 37115 ft 451 kts 52°
2026-05-07 20:20 53.77184 7.23431 37119 ft 451 kts 52°
2026-05-07 20:21 53.81083 7.31712 37122 ft 450 kts 52°
2026-05-07 20:21 53.84972 7.39999 37115 ft 449 kts 52°
2026-05-07 20:22 53.88845 7.48278 37120 ft 448 kts 52°
2026-05-07 20:22 53.92705 7.56559 37126 ft 447 kts 52°
2026-05-07 20:23 53.96553 7.64843 37124 ft 447 kts 52°
2026-05-07 20:23 54.00392 7.73133 37133 ft 446 kts 53°
2026-05-07 20:24 54.04221 7.81432 37135 ft 446 kts 52°
2026-05-07 20:24 54.08036 7.89729 37127 ft 445 kts 52°
2026-05-07 20:25 54.11848 7.98038 37133 ft 445 kts 53°
2026-05-07 20:25 54.15648 8.06356 37131 ft 444 kts 53°
2026-05-07 20:26 54.19444 8.14686 37132 ft 444 kts 52°
2026-05-07 20:26 54.23233 8.23030 37149 ft 444 kts 53°
2026-05-07 20:27 54.27010 8.31388 37125 ft 444 kts 53°
2026-05-07 20:27 54.30758 8.39700 37122 ft 444 kts 52°
2026-05-07 20:28 54.34522 8.48078 37134 ft 443 kts 53°
2026-05-07 20:28 54.38279 8.56465 37128 ft 443 kts 53°
2026-05-07 20:29 54.42031 8.64865 37127 ft 443 kts 53°
2026-05-07 20:29 54.45773 8.73278 37135 ft 443 kts 53°
2026-05-07 20:30 54.49509 8.81708 37128 ft 443 kts 53°
2026-05-07 20:30 54.53236 8.90147 37135 ft 443 kts 53°
2026-05-07 20:30 54.55097 8.94369 37032 ft 444 kts 53°
2026-05-07 20:31 54.56966 8.98617 36728 ft 442 kts 53°
2026-05-07 20:31 54.58806 9.02807 36352 ft 436 kts 53°
2026-05-07 20:31 54.60622 9.06949 36020 ft 430 kts 53°
2026-05-07 20:31 54.62416 9.11046 35621 ft 426 kts 53°
2026-05-07 20:32 54.64192 9.15108 35249 ft 422 kts 54°
2026-05-07 20:32 54.65950 9.19138 34873 ft 418 kts 54°
2026-05-07 20:32 54.67686 9.23124 34503 ft 414 kts 53°
2026-05-07 20:32 54.69406 9.27079 34133 ft 410 kts 54°
2026-05-07 20:33 54.71108 9.31001 33715 ft 406 kts 54°
2026-05-07 20:33 54.72791 9.34882 33356 ft 400 kts 54°
2026-05-07 20:33 54.74449 9.38714 32998 ft 396 kts 54°
2026-05-07 20:33 54.76090 9.42512 32623 ft 392 kts 54°
2026-05-07 20:34 54.77713 9.46272 32285 ft 388 kts 54°
2026-05-07 20:34 54.79316 9.49994 31914 ft 385 kts 54°
2026-05-07 20:34 54.80908 9.53695 31582 ft 381 kts 54°
2026-05-07 20:34 54.82485 9.57367 31226 ft 378 kts 54°
2026-05-07 20:35 54.84046 9.61005 30894 ft 375 kts 54°
2026-05-07 20:35 54.85597 9.64627 30586 ft 372 kts 54°
2026-05-07 20:35 54.87135 9.68224 30254 ft 370 kts 54°
2026-05-07 20:35 54.88662 9.71799 29871 ft 367 kts 53°
2026-05-07 20:36 54.90174 9.75345 29537 ft 363 kts 53°
2026-05-07 20:36 54.91669 9.78856 29182 ft 359 kts 53°
2026-05-07 20:36 54.93145 9.82327 28840 ft 356 kts 53°
2026-05-07 20:36 54.94609 9.85777 28497 ft 353 kts 53°
2026-05-07 20:37 54.96040 9.89151 28164 ft 349 kts 53°
2026-05-07 20:37 54.97475 9.92540 27838 ft 346 kts 53°
2026-05-07 20:37 54.98898 9.95906 27497 ft 344 kts 53°
2026-05-07 20:37 55.00310 9.99248 27172 ft 341 kts 53°
2026-05-07 20:38 55.01709 10.02567 26832 ft 339 kts 53°
2026-05-07 20:38 55.03100 10.05870 26506 ft 337 kts 53°
2026-05-07 20:38 55.04479 10.09149 26191 ft 335 kts 53°
2026-05-07 20:38 55.05851 10.12414 25864 ft 333 kts 53°
2026-05-07 20:39 55.07220 10.15679 25546 ft 333 kts 53°
2026-05-07 20:39 55.08586 10.18939 25230 ft 334 kts 53°
2026-05-07 20:39 55.09970 10.22249 24926 ft 342 kts 53°
2026-05-07 20:39 55.11392 10.25650 24593 ft 350 kts 53°
2026-05-07 20:40 55.12824 10.29084 24242 ft 349 kts 53°
2026-05-07 20:40 55.14249 10.32504 23894 ft 348 kts 53°
2026-05-07 20:40 55.15667 10.35915 23519 ft 346 kts 53°
2026-05-07 20:40 55.17079 10.39312 23130 ft 344 kts 53°
2026-05-07 20:41 55.18480 10.42691 22783 ft 342 kts 53°
2026-05-07 20:41 55.19866 10.46036 22446 ft 338 kts 53°
2026-05-07 20:41 55.21242 10.49362 22121 ft 336 kts 53°
2026-05-07 20:41 55.22607 10.52668 21789 ft 334 kts 53°
2026-05-07 20:42 55.23965 10.55956 21457 ft 331 kts 53°
2026-05-07 20:42 55.25308 10.59216 21135 ft 329 kts 53°
2026-05-07 20:42 55.26645 10.62465 20814 ft 327 kts 54°
2026-05-07 20:42 55.27782 10.65905 20487 ft 326 kts 66°
2026-05-07 20:43 55.28510 10.69661 20180 ft 324 kts 73°
2026-05-07 20:43 55.29141 10.73447 19854 ft 323 kts 73°
2026-05-07 20:43 55.29762 10.77222 19539 ft 322 kts 73°
2026-05-07 20:43 55.30386 10.80983 19218 ft 321 kts 73°
2026-05-07 20:44 55.31016 10.84732 18908 ft 320 kts 73°
2026-05-07 20:44 55.31648 10.88466 18594 ft 319 kts 73°
2026-05-07 20:44 55.32280 10.92191 18256 ft 318 kts 73°
2026-05-07 20:44 55.32909 10.95904 17908 ft 317 kts 73°
2026-05-07 20:45 55.33530 10.99603 17576 ft 315 kts 73°
2026-05-07 20:45 55.34145 11.03288 17254 ft 313 kts 73°
2026-05-07 20:45 55.34548 11.05712 17042 ft 312 kts 73°
2026-05-07 20:45 55.35357 11.10586 16635 ft 309 kts 73°
2026-05-07 20:46 55.35755 11.12987 16434 ft 308 kts 73°
2026-05-07 20:46 55.36351 11.16595 16132 ft 306 kts 73°
2026-05-07 20:46 55.36943 11.20179 15834 ft 305 kts 73°
2026-05-07 20:46 55.37530 11.23746 15530 ft 303 kts 73°
2026-05-07 20:47 55.38113 11.27294 15236 ft 301 kts 73°
2026-05-07 20:47 55.38692 11.30825 14943 ft 300 kts 73°
2026-05-07 20:47 55.39269 11.34349 14646 ft 299 kts 73°
2026-05-07 20:47 55.39841 11.37849 14352 ft 297 kts 73°
2026-05-07 20:48 55.40410 11.41339 14056 ft 296 kts 73°
2026-05-07 20:48 55.40976 11.44819 13727 ft 295 kts 74°
2026-05-07 20:48 55.41538 11.48284 13413 ft 294 kts 74°
2026-05-07 20:48 55.42098 11.51733 13110 ft 292 kts 74°
2026-05-07 20:49 55.42652 11.55158 12808 ft 290 kts 74°
2026-05-07 20:49 55.43201 11.58562 12522 ft 288 kts 74°
2026-05-07 20:49 55.43748 11.61944 12219 ft 286 kts 73°
2026-05-07 20:49 55.44576 11.65104 11953 ft 285 kts 57°
2026-05-07 20:50 55.45712 11.67956 11732 ft 285 kts 55°
2026-05-07 20:50 55.46858 11.70800 11486 ft 285 kts 55°
2026-05-07 20:50 55.47997 11.73663 11235 ft 284 kts 56°
2026-05-07 20:50 55.49119 11.76522 10988 ft 282 kts 56°
2026-05-07 20:51 55.50225 11.79362 10746 ft 280 kts 56°
2026-05-07 20:51 55.51319 11.82189 10506 ft 278 kts 56°
2026-05-07 20:51 55.52404 11.85001 10264 ft 276 kts 56°
2026-05-07 20:51 55.53476 11.87784 10022 ft 273 kts 56°
2026-05-07 20:52 55.54527 11.90554 9758 ft 268 kts 59°
2026-05-07 20:52 55.55066 11.93618 9275 ft 264 kts 91°
2026-05-07 20:52 55.54625 11.96742 8791 ft 263 kts 108°
2026-05-07 20:52 55.54045 11.99797 8304 ft 262 kts 107°
2026-05-07 20:53 55.53488 12.02859 7839 ft 261 kts 106°
2026-05-07 20:53 55.52944 12.05905 7395 ft 260 kts 106°
2026-05-07 20:53 55.52404 12.08940 6969 ft 258 kts 106°
2026-05-07 20:53 55.51885 12.11866 6871 ft 243 kts 106°
2026-05-07 20:54 55.51395 12.14635 6755 ft 229 kts 105°
2026-05-07 20:54 55.50933 12.17246 6649 ft 217 kts 105°
2026-05-07 20:54 55.50501 12.19679 6543 ft 204 kts 105°
2026-05-07 20:54 55.50091 12.21995 6409 ft 193 kts 105°
2026-05-07 20:55 55.49699 12.24223 6089 ft 190 kts 105°
2026-05-07 20:55 55.49305 12.26460 5676 ft 191 kts 105°
2026-05-07 20:55 55.48911 12.28695 5296 ft 192 kts 105°
2026-05-07 20:55 55.48508 12.30969 4943 ft 190 kts 105°
2026-05-07 20:56 55.48130 12.33090 4790 ft 177 kts 104°
2026-05-07 20:56 55.47770 12.35112 4612 ft 170 kts 104°
2026-05-07 20:56 55.47420 12.37083 4272 ft 168 kts 104°
2026-05-07 20:56 55.47083 12.39061 3894 ft 168 kts 97°
2026-05-07 20:57 55.47201 12.41056 3485 ft 164 kts 62°
2026-05-07 20:57 55.47913 12.42565 3114 ft 160 kts 43°
2026-05-07 20:57 55.48693 12.43917 2846 ft 152 kts 41°
2026-05-07 20:57 55.49451 12.45153 2665 ft 144 kts 40°
2026-05-07 20:58 55.50209 12.46349 2444 ft 147 kts 40°
2026-05-07 20:58 55.50982 12.47558 2234 ft 149 kts 39°
2026-05-07 20:58 55.51758 12.48766 2036 ft 149 kts 40°
2026-05-07 20:58 55.52535 12.49974 1824 ft 148 kts 40°
2026-05-07 20:59 55.53307 12.51172 1614 ft 147 kts 39°
2026-05-07 20:59 55.54074 12.52365 1412 ft 147 kts 40°
2026-05-07 20:59 55.54843 12.53558 1221 ft 147 kts 39°
2026-05-07 20:59 55.55612 12.54753 1025 ft 147 kts 39°
2026-05-07 21:00 55.56385 12.55942 837 ft 146 kts 39°
2026-05-07 21:00 55.57146 12.57122 638 ft 145 kts 39°
2026-05-07 21:00 55.57901 12.58290 416 ft 143 kts 39°
2026-05-07 21:00 55.58644 12.59447 214 ft 141 kts 40°
2026-05-07 21:01 55.59366 12.60575 39 ft 136 kts 39°
2026-05-07 21:01 55.60002 12.61554 23 ft 100 kts 41°
2026-05-07 21:01 55.60419 12.62204 20 ft 72 kts 41°
2026-05-07 21:01 55.60766 12.62728 24 ft 53 kts 34°
2026-05-07 21:02 55.61043 12.62898 22 ft 35 kts 12°
2026-05-07 21:02 55.61226 12.63073 23 ft 27 kts 41°
2026-05-07 21:02 55.61362 12.63285 23 ft 25 kts 41°
2026-05-07 21:02 55.61492 12.63479 23 ft 23 kts 40°
2026-05-07 21:03 55.61611 12.63665 23 ft 23 kts 42°
2026-05-07 21:03 55.61723 12.63845 23 ft 22 kts 42°
2026-05-07 21:03 55.61837 12.64013 23 ft 21 kts 40°
2026-05-07 21:03 55.61929 12.64190 25 ft 20 kts 84°
2026-05-07 21:04 55.61958 12.64424 24 ft 19 kts 75°
2026-05-07 21:04 55.62048 12.64583 22 ft 19 kts 33°
2026-05-07 21:04 55.62154 12.64704 22 ft 18 kts 32°
2026-05-07 21:04 55.62252 12.64826 23 ft 15 kts 53°
2026-05-07 21:05 55.62219 12.64990 23 ft 15 kts 124°
2026-05-07 21:05 55.62194 12.65145 26 ft 14 kts 46°
2026-05-07 21:05 55.62283 12.65198 23 ft 14 kts
2026-05-07 21:05 55.62375 12.65205 23 ft 13 kts 357°
2026-05-07 21:06 55.62439 12.65279 24 ft 13 kts 84°
2026-05-07 21:06 55.62442 12.65434 23 ft 13 kts 88°
2026-05-07 21:06 55.62479 12.65543 25 ft 7 kts 23°
2026-05-07 21:06 55.62496 12.65557 23 ft 2 kts 26°
2026-05-07 21:07 55.62508 12.65567 23 ft 2 kts 24°
2026-05-07 21:07 55.62514 12.65572 23 ft 0 kts 24°
2026-05-07 21:07 55.62515 12.65573 23 ft 0 kts 24°